FW6922 Weather Reports


time (UTC)temp
F
wind
direction
speed
knots
gust
knots
rain 1hr
in
rain 24hr
in
rain mn
in
humidity
%
barometer
mb
20260507161644 57 262 7.8 12.2 0.00 0.00 0.00 70
20260507160032 56 259 8.7 13.9 0.00 0.00 0.00 72
20260507154645 54 254 6.1 10.4 0.00 0.00 0.00 74
20260507153103 54 240 4.3 7.8 0.00 0.00 0.00 75
20260507151530 53 247 5.2 9.6 0.00 0.00 0.00 76
20260507150034 52 268 5.2 11.3 0.00 0.00 0.00 80
20260507143030 52 229 7.0 10.4 0.00 0.00 0.00 79
20260507140030 51 284 10.4 16.5 0.00 0.00 0.00 81
20260507133029 49 293 7.0 12.2 0.00 0.00 0.00 83
20260507131531 49 287 0.0 5.2 0.00 0.00 0.00 83
20260507130029 50 296 2.6 7.8 0.00 0.00 0.00 83
20260507124529 50 282 5.2 8.7 0.00 0.00 0.00 83
20260507123029 50 298 5.2 8.7 0.00 0.00 0.00 83
20260507114535 51 326 6.1 10.4 0.00 0.00 0.00 83
20260507113148 51 317 7.0 12.2 0.00 0.00 0.00 83
20260507110029 51 3 4.3 8.7 0.00 0.00 0.00 81
20260507103106 52 274 4.3 10.4 0.00 0.00 0.00 79
20260507101530 52 270 3.5 9.6 0.00 0.00 0.00 78
20260507100046 53 259 3.5 7.0 0.00 0.00 0.00 78
20260507091602 54 291 7.8 12.2 0.00 0.00 0.00 79
20260507090105 54 279 1.7 11.3 0.00 0.00 0.00 80
20260507084602 54 253 3.5 7.8 0.00 0.00 0.00 79
20260507083146 55 278 6.1 12.2 0.00 0.00 0.00 79
20260507080029 55 279 9.6 13.0 0.00 0.00 0.00 78
20260507073031 55 273 7.8 13.0 0.00 0.00 0.00 79
20260507071531 55 272 4.3 9.6 0.00 0.00 0.00 78
20260507070036 56 277 5.2 8.7 0.00 0.00 0.00 77
20260507064531 56 256 2.6 6.1 0.00 0.00 0.00 76
20260507063030 57 270 6.1 10.4 0.00 0.00 0.00 76
20260507061530 57 263 6.1 11.3 0.00 0.00 0.00 76
20260507054529 57 266 6.1 10.4 0.00 0.00 0.00 76
20260507053055 56 276 6.1 9.6 0.00 0.00 0.00 73
20260507051529 56 272 2.6 8.7 0.00 0.00 0.00 70
20260507044529 59 283 4.3 7.8 0.00 0.00 0.00 63
20260507043030 60 254 5.2 8.7 0.00 0.00 0.00 57
20260507040036 62 255 5.2 9.6 0.00 0.00 0.00 55
20260507033029 62 280 7.0 10.4 0.00 0.00 0.00 55
20260507031602 64 282 7.8 13.9 0.00 0.00 0.00 54
20260507024530 64 292 6.1 14.8 0.00 0.00 0.00 55
20260507023030 63 286 6.1 12.2 0.00 0.00 0.00 55
20260507020029 64 312 3.5 9.6 0.00 0.00 0.00 54
20260507014528 64 290 4.3 11.3 0.00 0.00 0.00 54
20260507013030 65 298 3.5 9.6 0.00 0.00 0.00 54
20260507011530 65 287 5.2 14.8 0.00 0.00 0.00 52
20260507004530 67 272 7.0 13.9 0.00 0.00 0.00 51
20260507003031 67 275 5.2 12.2 0.00 0.00 0.00 49
20260507001606 67 288 5.2 13.0 0.00 0.00 0.00 48
20260507000108 68 281 7.0 15.6 0.00 0.00 0.00 48
20260506234531 69 281 9.6 15.6 0.00 0.00 0.00 49
20260506233032 70 265 13.9 23.5 0.00 0.00 0.00 48
20260506230028 69 256 14.8 23.5 0.00 0.00 0.00 48
20260506224529 70 250 15.6 24.3 0.00 0.00 0.00 48
20260506223029 70 251 14.8 27.8 0.00 0.00 0.00 49
20260506221530 70 252 12.2 21.7 0.00 0.00 0.00 50
20260506220029 70 258 11.3 20.9 0.00 0.00 0.00 49
20260506214532 71 259 10.4 20.9 0.00 0.00 0.00 49
20260506213029 72 267 9.6 19.1 0.00 0.00 0.00 50
20260506211529 72 258 12.2 20.0 0.00 0.00 0.00 51
20260506210029 71 258 13.0 20.9 0.00 0.00 0.00 52
20260506203102 70 268 10.4 16.5 0.00 0.00 0.00 54
20260506201540 71 272 12.2 20.9 0.00 0.00 0.00 55
20260506200028 70 259 11.3 20.9 0.00 0.00 0.00 57
20260506194531 69 274 12.2 19.1 0.00 0.00 0.00 58
20260506191531 68 283 14.8 25.2 0.00 0.00 0.00 61
20260506190031 67 282 12.2 23.5 0.00 0.00 0.00 61
20260506184604 66 281 13.9 22.6 0.00 0.00 0.00 63
20260506183029 66 281 15.6 23.5 0.00 0.00 0.00 63
20260506181646 65 275 15.6 23.5 0.00 0.00 0.00 64
20260506180106 66 271 13.9 21.7 0.00 0.00 0.00 64
20260506174647 66 281 9.6 18.2 0.00 0.00 0.00 64
20260506173029 66 283 9.6 14.8 0.00 0.00 0.00 64
20260506171530 65 267 8.7 16.5 0.00 0.00 0.00 66
20260506164529 63 265 8.7 15.6 0.00 0.00 0.00 67
20260506163031 63 258 9.6 18.2 0.00 0.00 0.00 68